Weather History for Volkel, Netherlands

Change the Weather History Date:

Saturday, October 6, 2012

  Actual Average Record
Temperature  
Mean Temperature 49 °F -  
Max Temperature 59 °F 54 °F 73 °F (1997)
Min Temperature 39 °F 41 °F 37 °F (1996)
Degree Days  
Heating Degree Days 16    
Moisture  
Dew Point 50 °F    
Average Humidity 93    
Maximum Humidity 100    
Minimum Humidity 72    
Precipitation  
Precipitation 0.00 in - - ()
Sea Level Pressure  
Sea Level Pressure 29.82 in    
Wind  
Wind Speed 5 mph ()    
Max Wind Speed 17 mph    
Max Gust Speed -    
Visibility 4.8 miles    
Events Fog , Rain    
Averages and records for this station are not official NWS values.
T = Trace of Precipitation, MM = Missing Value Source: Averaged Metar Reports

Daily Weather History Graph

Daily Weather History Graph

Search for Another Location

Airport:

Trip Planner

Search our weather history database for the weather conditions in past years. The results will help you decide how hot, cold, wet, or windy it might be!

Date:

Astronomy

Oct. 06, 2012 Rise Set
Actual Time 7:46 AM CEST 7:02 PM CEST
Civil Twilight 7:13 AM CEST 7:36 PM CEST
Nautical Twilight 6:34 AM CEST 8:14 PM CEST
Astronomical Twilight 5:54 AM CEST 8:54 PM CEST
Moon 10:31 PM CEST (10/6) 2:02 PM CEST (10/6)
Length of Visible Light 12h 22m
Length of Day
11h 16m
Waning Gibbous, 68% of the Moon is Illuminated
Oct 6
Waning Gibbous
Oct 8
Last Quarter
Oct 15
New
Oct 22
First Quarter
Oct 29
Full

Hourly Weather History & Observations

Time (CEST) Temp. Windchill Dew Point Humidity Pressure Visibility Wind Dir Wind Speed Gust Speed Precip Events Conditions
12:25 AM 51.8 °F - 51.8 °F 100% 29.86 in 6.2 mi WSW 2.3 mph - N/A   Overcast
12:46 AM 51.8 °F - 48.2 °F 88% 29.86 in - WNW 3.5 mph - N/A   Drizzle
12:50 AM 51.8 °F - 48.2 °F 88% 29.86 in 3.1 mi West 3.5 mph - N/A   Drizzle
12:55 AM 50.0 °F - 48.2 °F 94% 29.86 in 3.1 mi WNW 3.5 mph - N/A   Drizzle
1:08 AM 50.0 °F - 48.2 °F 94% 29.83 in 4.3 mi NW 1.2 mph - N/A   Overcast
1:25 AM 50.0 °F - 48.2 °F 94% 29.83 in 3.1 mi SSW 1.2 mph - N/A   Drizzle
1:39 AM 50.0 °F - 50.0 °F 100% 29.83 in - North 1.2 mph - N/A Rain Light Rain
1:55 AM 50.0 °F - 50.0 °F 100% 29.83 in 1.6 mi NNE 1.2 mph - N/A   Heavy Drizzle
1:59 AM 50.0 °F - 50.0 °F 100% 29.83 in 1.6 mi North 2.3 mph - N/A Rain Rain
2:03 AM 50.0 °F - 50.0 °F 100% 29.83 in 1.7 mi North 2.3 mph - N/A Rain Light Rain
2:06 AM 50.0 °F - 50.0 °F 100% 29.83 in 1.8 mi NNE 1.2 mph - N/A Rain Rain
2:13 AM 50.0 °F - 50.0 °F 100% 29.83 in - NE 1.2 mph - N/A Rain Heavy Rain Showers
2:25 AM 50.0 °F - 50.0 °F 100% 29.83 in - ENE 2.3 mph - N/A Rain Light Rain
2:31 AM 50.0 °F - 50.0 °F 100% 29.80 in - East 2.3 mph - N/A Rain Light Rain
2:38 AM 50.0 °F - 50.0 °F 100% 29.80 in 2.5 mi East 2.3 mph - N/A Rain Light Rain
2:42 AM 50.0 °F - 50.0 °F 100% 29.80 in 2.2 mi ESE 2.3 mph - N/A Rain Light Rain
2:46 AM 50.0 °F - 50.0 °F 100% 29.80 in 2.2 mi ESE 2.3 mph - N/A Rain Light Rain
2:50 AM 50.0 °F - 50.0 °F 100% 29.80 in 2.5 mi ESE 3.5 mph - N/A   Overcast
2:55 AM 50.0 °F - 50.0 °F 100% 29.80 in - East 3.5 mph - N/A Rain Light Rain
2:58 AM 50.0 °F - 50.0 °F 100% 29.80 in 1.9 mi ENE 2.3 mph - N/A Rain Rain
3:03 AM 50.0 °F - 50.0 °F 100% 29.80 in 1.7 mi NE 2.3 mph - N/A Rain Light Rain
3:05 AM 50.0 °F - 50.0 °F 100% 29.80 in 1.6 mi NE 2.3 mph - N/A Rain Light Rain
3:18 AM 50.0 °F - 50.0 °F 100% 29.80 in 1.7 mi East 2.3 mph - N/A Rain Light Rain
3:25 AM 50.0 °F - 50.0 °F 100% 29.80 in 1.6 mi ESE 2.3 mph - N/A   Heavy Drizzle
3:55 AM 50.0 °F - 50.0 °F 100% 29.77 in - East 3.5 mph - N/A   Mostly Cloudy
3:59 AM 50.0 °F - 50.0 °F 100% 29.77 in - East 3.5 mph - N/A   Overcast
4:03 AM 50.0 °F - 50.0 °F 100% 29.77 in - East 2.3 mph - N/A   Overcast
4:07 AM 50.0 °F - 50.0 °F 100% 29.77 in - ENE 2.3 mph - N/A   Overcast
4:25 AM 51.8 °F - 50.0 °F 94% 29.74 in - ESE 2.3 mph - N/A Rain Light Rain
4:28 AM 51.8 °F - 50.0 °F 94% 29.74 in 2.2 mi SE 2.3 mph - N/A Rain Light Rain
4:33 AM 51.8 °F - 50.0 °F 94% 29.74 in - ESE 1.2 mph - N/A   Mostly Cloudy
4:38 AM 51.8 °F - 50.0 °F 94% 29.74 in - ESE 1.2 mph - N/A   Mostly Cloudy
4:42 AM 51.8 °F - 50.0 °F 94% 29.74 in - East 1.2 mph - N/A   Overcast
4:46 AM 51.8 °F - 51.8 °F 100% 29.74 in - Calm Calm - N/A   Overcast
4:48 AM 51.8 °F - 51.8 °F 100% 29.74 in - SE 1.2 mph - N/A   Mostly Cloudy
4:55 AM 51.8 °F - 51.8 °F 100% 29.74 in - SE 2.3 mph - N/A   Mostly Cloudy
5:25 AM 53.6 °F - 53.6 °F 100% 29.74 in 1.8 mi South 2.3 mph - N/A   Mostly Cloudy
5:31 AM 51.8 °F - 51.8 °F 100% 29.74 in 1.7 mi West 4.6 mph - N/A   Mostly Cloudy
5:35 AM 53.6 °F - 51.8 °F 94% 29.74 in 1.6 mi NW 4.6 mph - N/A   Mostly Cloudy
5:42 AM 55.4 °F - 53.6 °F 94% 29.71 in 1.8 mi SSW 5.8 mph - N/A   Mostly Cloudy
5:55 AM 55.4 °F - 55.4 °F 100% 29.71 in - SSW 9.2 mph - N/A   Mostly Cloudy
6:08 AM 57.2 °F - 57.2 °F 100% 29.71 in - SSW 9.2 mph - N/A   Overcast
6:12 AM 57.2 °F - 55.4 °F 94% 29.71 in 3.1 mi WSW 6.9 mph - N/A   Mostly Cloudy
6:25 AM 57.2 °F - 57.2 °F 100% 29.71 in 5.6 mi SSW 9.2 mph - N/A   Mostly Cloudy
6:32 AM 59.0 °F - 57.2 °F 94% 29.71 in 6.2 mi SSW 11.5 mph - N/A   Overcast
6:37 AM 59.0 °F - 57.2 °F 94% 29.71 in 6.2 mi SSW 11.5 mph - N/A   Overcast
6:41 AM 59.0 °F - 57.2 °F 94% 29.71 in 6.2 mi SSW 12.7 mph - N/A   Mostly Cloudy
6:55 AM 59.0 °F - 57.2 °F 94% 29.71 in 6.2 mi SSW 15.0 mph - N/A   Overcast
7:03 AM 59.0 °F - 57.2 °F 94% 29.71 in 6.2 mi SW 16.1 mph - N/A   Overcast
7:07 AM 59.0 °F - 57.2 °F 94% 29.71 in 6.2 mi SW 16.1 mph - N/A   Overcast
7:11 AM 59.0 °F - 57.2 °F 94% 29.71 in 6.2 mi SW 15.0 mph - N/A   Overcast
7:15 AM 59.0 °F - 57.2 °F 94% 29.71 in 6.2 mi SW 15.0 mph - N/A   Overcast
7:25 AM 59.0 °F - 57.2 °F 94% 29.71 in 6.2 mi SW 15.0 mph - N/A   Mostly Cloudy
7:39 AM 59.0 °F - 55.4 °F 88% 29.71 in 6.2 mi SW 13.8 mph - N/A   Overcast
7:43 AM 59.0 °F - 55.4 °F 88% 29.71 in 6.2 mi SW 13.8 mph - N/A   Mostly Cloudy
7:49 AM 59.0 °F - 55.4 °F 88% 29.71 in 6.2 mi SW 13.8 mph - N/A   Mostly Cloudy
7:55 AM 59.0 °F - 55.4 °F 88% 29.71 in 6.2 mi SW 12.7 mph - N/A   Mostly Cloudy
7:59 AM 59.0 °F - 55.4 °F 88% 29.71 in 6.2 mi SW 12.7 mph - N/A   Mostly Cloudy
8:17 AM 59.0 °F - 55.4 °F 88% 29.68 in 6.2 mi SW 13.8 mph - N/A   Mostly Cloudy
8:21 AM 59.0 °F - 55.4 °F 88% 29.68 in 6.2 mi SW 13.8 mph - N/A   Mostly Cloudy
8:25 AM 59.0 °F - 55.4 °F 88% 29.68 in 6.2 mi SW 12.7 mph - N/A   Mostly Cloudy
8:39 AM 59.0 °F - 55.4 °F 88% 29.68 in 6.2 mi SW 12.7 mph - N/A   Mostly Cloudy
8:55 AM 59.0 °F - 55.4 °F 88% 29.68 in 6.2 mi SW 12.7 mph - N/A   Mostly Cloudy
9:07 AM 59.0 °F - 55.4 °F 88% 29.68 in 6.2 mi SW 12.7 mph - N/A Rain Light Rain
9:17 AM 59.0 °F - 55.4 °F 88% 29.68 in 6.2 mi SSW 13.8 mph - N/A Rain Drizzle
9:25 AM 59.0 °F - 55.4 °F 88% 29.68 in 6.2 mi SSW 15.0 mph - N/A Rain Light Rain
9:27 AM 59.0 °F - 55.4 °F 88% 29.68 in 6.2 mi SW 15.0 mph - N/A Rain Light Rain
9:34 AM 59.0 °F - 57.2 °F 94% 29.68 in 5.6 mi SW 16.1 mph - N/A Rain Light Rain
9:38 AM 59.0 °F - 57.2 °F 94% 29.68 in 5.6 mi SW 16.1 mph - N/A Rain Light Rain Showers
9:42 AM 59.0 °F - 57.2 °F 94% 29.68 in 5.6 mi SW 16.1 mph - N/A Rain Light Rain Showers
9:46 AM 59.0 °F - 57.2 °F 94% 29.68 in 5.6 mi SW 16.1 mph - N/A Rain Light Rain Showers
9:49 AM 59.0 °F - 57.2 °F 94% 29.68 in 6.2 mi SW 17.3 mph - N/A Rain Light Rain
9:55 AM 59.0 °F - 57.2 °F 94% 29.68 in 6.2 mi SW 17.3 mph - N/A Rain Drizzle
9:59 AM 55.4 °F - 53.6 °F 94% 29.71 in 3.7 mi NW 16.1 mph - N/A Rain Rain
10:03 AM 53.6 °F - 50.0 °F 88% 29.71 in 3.7 mi NW 11.5 mph - N/A Rain Rain Showers
10:16 AM 50.0 °F - 48.2 °F 94% 29.74 in 5.6 mi NNW 13.8 mph - N/A Rain Light Rain
10:20 AM 50.0 °F - 48.2 °F 94% 29.74 in 6.2 mi NNW 12.7 mph - N/A Rain Light Rain Showers
10:25 AM 50.0 °F - 48.2 °F 94% 29.74 in 5.0 mi NNW 10.4 mph - N/A Rain Rain Showers
10:29 AM 50.0 °F - 48.2 °F 94% 29.74 in 5.6 mi NNW 10.4 mph - N/A Rain Rain Showers
10:33 AM 50.0 °F - 48.2 °F 94% 29.74 in 5.6 mi NNW 9.2 mph - N/A Rain Rain
10:46 AM 50.0 °F - 48.2 °F 94% 29.77 in 6.2 mi NNW 9.2 mph - N/A Rain Light Rain
10:50 AM 50.0 °F - 48.2 °F 94% 29.77 in 6.2 mi NNW 9.2 mph - N/A Rain Rain
10:55 AM 50.0 °F - 48.2 °F 94% 29.77 in 6.2 mi North 8.1 mph - N/A Rain Rain
11:25 AM 50.0 °F - 48.2 °F 94% 29.80 in 6.2 mi NNW 6.9 mph - N/A Rain Light Rain
11:34 AM 50.0 °F - 48.2 °F 94% 29.80 in 6.2 mi NNW 5.8 mph - N/A Rain Light Rain
11:38 AM 50.0 °F - 48.2 °F 94% 29.80 in 6.2 mi NNW 5.8 mph - N/A Rain Light Rain
11:42 AM 50.0 °F - 48.2 °F 94% 29.80 in 6.2 mi NNW 4.6 mph - N/A Rain Light Rain
11:48 AM 50.0 °F - 48.2 °F 94% 29.80 in 6.2 mi NNW 5.8 mph - N/A Rain Light Rain
11:55 AM 50.0 °F - 48.2 °F 94% 29.80 in 6.2 mi NNW 4.6 mph - N/A Rain Light Rain Showers
12:01 PM 50.0 °F - 48.2 °F 94% 29.83 in 6.2 mi NNW 4.6 mph - N/A Rain Light Rain
12:08 PM 50.0 °F - 48.2 °F 94% 29.83 in 6.2 mi NNW 5.8 mph - N/A Rain Light Rain
12:16 PM 50.0 °F - 50.0 °F 100% 29.83 in 6.2 mi NNW 4.6 mph - N/A Rain Light Rain
12:20 PM 50.0 °F - 50.0 °F 100% 29.83 in 6.2 mi NW 4.6 mph - N/A   Mostly Cloudy
12:25 PM 51.8 °F - 50.0 °F 94% 29.83 in 6.2 mi NNW 5.8 mph - N/A   Mostly Cloudy
12:29 PM 51.8 °F - 50.0 °F 94% 29.83 in 6.2 mi NNW 4.6 mph - N/A   Overcast
12:37 PM 51.8 °F - 50.0 °F 94% 29.83 in 6.2 mi NNW 4.6 mph - N/A   Mostly Cloudy
12:45 PM 51.8 °F - 50.0 °F 94% 29.83 in 6.2 mi NNW 4.6 mph - N/A   Overcast
12:49 PM 51.8 °F - 50.0 °F 94% 29.83 in 6.2 mi NNW 4.6 mph - N/A   Mostly Cloudy
12:55 PM 51.8 °F - 50.0 °F 94% 29.83 in 6.2 mi NW 4.6 mph - N/A   Mostly Cloudy
1:25 PM 53.6 °F - 50.0 °F 88% 29.86 in 6.2 mi NW 5.8 mph - N/A   Mostly Cloudy
1:29 PM 53.6 °F - 50.0 °F 88% 29.86 in 6.2 mi NW 5.8 mph - N/A   Mostly Cloudy
1:38 PM 53.6 °F - 50.0 °F 88% 29.86 in 6.2 mi NW 5.8 mph - N/A   Overcast
1:42 PM 53.6 °F - 50.0 °F 88% 29.86 in 6.2 mi NW 5.8 mph - N/A   Overcast
1:46 PM 53.6 °F - 48.2 °F 82% 29.86 in 6.2 mi NW 5.8 mph - N/A   Overcast
1:50 PM 53.6 °F - 50.0 °F 88% 29.86 in 6.2 mi WNW 5.8 mph - N/A   Mostly Cloudy
1:55 PM 53.6 °F - 50.0 °F 88% 29.86 in 6.2 mi WNW 5.8 mph - N/A   Overcast
2:11 PM 53.6 °F - 50.0 °F 88% 29.89 in 6.2 mi WNW 6.9 mph - N/A   Scattered Clouds
2:20 PM 53.6 °F - 50.0 °F 88% 29.89 in 6.2 mi WNW 6.9 mph - N/A   Scattered Clouds
2:25 PM 55.4 °F - 50.0 °F 82% 29.89 in 6.2 mi WNW 5.8 mph - N/A   Mostly Cloudy
2:32 PM 55.4 °F - 50.0 °F 82% 29.89 in 6.2 mi WNW 4.6 mph - N/A   Mostly Cloudy
2:33 PM 55.4 °F - 50.0 °F 82% 29.89 in 6.2 mi WNW 4.6 mph - N/A   Mostly Cloudy
2:45 PM 53.6 °F - 48.2 °F 82% 29.89 in 6.2 mi WNW 5.8 mph - N/A   Mostly Cloudy
2:55 PM 55.4 °F - 50.0 °F 82% 29.89 in 6.2 mi WNW 3.5 mph - N/A   Scattered Clouds
2:59 PM 55.4 °F - 50.0 °F 82% 29.89 in 6.2 mi WNW 4.6 mph - N/A   Partly Cloudy
3:03 PM 55.4 °F - 48.2 °F 77% 29.89 in 6.2 mi WNW 4.6 mph - N/A   Scattered Clouds
3:09 PM 55.4 °F - 50.0 °F 82% 29.89 in 6.2 mi West 4.6 mph - N/A   Scattered Clouds
3:13 PM 55.4 °F - 50.0 °F 82% 29.89 in 6.2 mi WNW 4.6 mph - N/A   Mostly Cloudy
3:25 PM 55.4 °F - 50.0 °F 82% 29.89 in 6.2 mi West 4.6 mph - N/A   Mostly Cloudy
3:29 PM 55.4 °F - 50.0 °F 82% 29.89 in 6.2 mi West 4.6 mph - N/A   Mostly Cloudy
3:33 PM 57.2 °F - 48.2 °F 72% 29.89 in 6.2 mi West 5.8 mph - N/A   Mostly Cloudy
3:55 PM 57.2 °F - 48.2 °F 72% 29.89 in 6.2 mi West 8.1 mph - N/A   Mostly Cloudy
4:08 PM 57.2 °F - 48.2 °F 72% 29.92 in 6.2 mi West 5.8 mph - N/A   Mostly Cloudy
4:13 PM 57.2 °F - 50.0 °F 77% 29.92 in 6.2 mi WNW 5.8 mph - N/A   Partly Cloudy
4:25 PM 57.2 °F - 48.2 °F 72% 29.92 in 6.2 mi WNW 5.8 mph - N/A   Partly Cloudy
4:55 PM 55.4 °F - 48.2 °F 77% 29.92 in 6.2 mi West 3.5 mph - N/A   Partly Cloudy
5:25 PM 57.2 °F - 50.0 °F 77% 29.92 in 6.2 mi West 4.6 mph - N/A   Partly Cloudy
5:55 PM 57.2 °F - 48.2 °F 72% 29.92 in 6.2 mi West 4.6 mph - N/A   Scattered Clouds
6:25 PM 53.6 °F - 48.2 °F 82% 29.92 in 6.2 mi WSW 5.8 mph - N/A   Mostly Cloudy
6:55 PM 51.8 °F - 48.2 °F 88% 29.95 in 6.2 mi WSW 4.6 mph - N/A   Scattered Clouds
7:25 PM 48.2 °F - 46.4 °F 93% 29.95 in 6.2 mi SW 4.6 mph - N/A   Unknown
7:55 PM 50.0 °F - 48.2 °F 94% 29.95 in 6.2 mi West 3.5 mph - N/A   Unknown
8:25 PM 48.2 °F - 46.4 °F 93% 29.95 in 6.2 mi WSW 3.5 mph - N/A   Unknown
8:34 PM 46.4 °F 45.2 °F 46.4 °F 100% 29.95 in - West 3.5 mph - N/A   Partly Cloudy
8:40 PM 48.2 °F - 46.4 °F 93% 29.95 in - WSW 2.3 mph - N/A   Mostly Cloudy
8:41 PM 46.4 °F - 46.4 °F 100% 29.95 in - SW 1.2 mph - N/A   Scattered Clouds
8:55 PM 46.4 °F - 44.6 °F 93% 29.95 in 1.8 mi SW 1.2 mph - N/A   Scattered Clouds
9:06 PM 46.4 °F - 46.4 °F 100% 29.95 in - SW 2.3 mph - N/A   Mist
9:10 PM 46.4 °F - 46.4 °F 100% 29.95 in - WSW 2.3 mph - N/A   Mist
9:14 PM 48.2 °F - 46.4 °F 93% 29.95 in 3.1 mi WSW 2.3 mph - N/A   Mist
9:20 PM 46.4 °F 45.2 °F 46.4 °F 100% 29.98 in 5.0 mi West 3.5 mph - N/A   Mist
9:25 PM 44.6 °F 43.1 °F 44.6 °F 100% 29.95 in - West 3.5 mph - N/A   Mist
9:30 PM 44.6 °F 43.1 °F 44.6 °F 100% 29.95 in - West 3.5 mph - N/A   Mist
9:34 PM 44.6 °F - 44.6 °F 100% 29.95 in 0.8 mi West 2.3 mph - N/A   Mist
9:39 PM 44.6 °F - 44.6 °F 100% 29.95 in 0.3 mi WSW 2.3 mph - N/A Fog Fog
9:44 PM 44.6 °F - 44.6 °F 100% 29.98 in - West 2.3 mph - N/A   Mist
9:48 PM 44.6 °F - 44.6 °F 100% 29.98 in 0.9 mi West 2.3 mph - N/A   Mist
9:55 PM 44.6 °F - 44.6 °F 100% 29.98 in 0.5 mi West 2.3 mph - N/A Fog Fog
9:59 PM 44.6 °F - 42.8 °F 93% 29.98 in - West 2.3 mph - N/A Fog Fog
10:18 PM 42.8 °F 41.1 °F 41.0 °F 93% 29.98 in - WSW 3.5 mph - N/A   Mist
10:25 PM 42.8 °F - 41.0 °F 93% 29.98 in 1.0 mi West 2.3 mph - N/A   Mist
10:29 PM 42.8 °F - 42.8 °F 100% 29.98 in 0.3 mi West 2.3 mph - N/A Fog Fog
10:40 PM 44.6 °F 43.1 °F 44.6 °F 100% 29.98 in 0.5 mi West 3.5 mph - N/A Fog Fog
10:55 PM 39.2 °F - 39.2 °F 100% 29.98 in 0.6 mi West 2.3 mph - N/A Fog Fog
11:06 PM 41.0 °F - 39.2 °F 93% 29.98 in - West 1.2 mph - N/A Fog Fog
11:14 PM 39.2 °F - 39.2 °F 100% 29.98 in 0.2 mi SW 2.3 mph - N/A Fog Fog
11:21 PM 39.2 °F - 39.2 °F 100% 29.98 in 0.2 mi SW 2.3 mph - N/A Fog Fog
11:25 PM 39.2 °F - 39.2 °F 100% 29.98 in 0.2 mi SW 2.3 mph - N/A Fog Fog
11:55 PM 42.8 °F - 42.8 °F 100% 29.98 in 0.3 mi WSW 2.3 mph - N/A Fog Fog